Location: Clifton Park
(41.4873°N, 81.8024°W)
Time: 22:51:00
(UTC+00:00)

Cosmos 2341 Rocket - Pass Details

Date: 21 January 2020
Orbit: 967 x 1005 km, 82.9° (Epoch: 17 February)

Event Time Altitude Azimuth Distance (km) Brightness Sun altitude
Rises 11:15:23 0° 349° (NNW) 3,696 6.8 -17.3°
Reaches altitude 10° 11:17:56 10° 346° (NNW) 2,739 6.1 -16.8°
Maximum altitude 11:24:06 63° 267° (W) 1,079 4.0 -15.7°
Drops below altitude 10° 11:30:12 10° 188° (S) 2,702 6.4 -14.6°
Sets 11:32:42 0° 185° (S) 3,643 7.1 -14.1°
